Location: Newark
(34.0131°N, 4.3314°W)
Time: 12:01:44
(UTC+00:00)

Explorer 11/Cluster Stage 4 - Pass Details

Date: 29 October 2019
Orbit: 467 x 1259 km, 28.8° (Epoch: 22 November)

Event Time Altitude Azimuth Distance (km) Brightness Sun altitude
Rises 08:48:42 0° 265° (W) 2,817 9.0 24.1°
Reaches altitude 10° 08:51:23 10° 254° (WSW) 1,808 8.2 24.6°
Maximum altitude 08:54:52 27° 194° (SSW) 971 7.6 25.1°
Drops below altitude 10° 08:58:03 10° 134° (SE) 1,630 10.1 25.6°
Sets 09:00:20 0° 122° (ESE) 2,482 10.5 26.0°
